Regional Weather Roundup
Issued by NWS

Home | Current Version | Previous Version | Graphics & Text | Print | Product List | Glossary Off
Versions: 1 2 3 4 5 6 7 8 9 10 11 12 13 14 15 16 17 18 19 20 21 22 23 24 25 26 27 28 29 30 31 32 33 34 35 36 37 38 39 40 41 42 43 44 45 46 47 48 49 50

000
ASUS43 KMKX 310100
RWRWI

WISCONSIN REGIONAL WEATHER ROUNDUP
NATIONAL WEATHER SERVICE MILWAUKEE/SULLIVAN WI
800 PM CDT TUE AUG 30 2016

NOTE: "FAIR" INDICATES FEW OR NO CLOUDS BELOW 12,000 FEET WITH NO
SIGNIFICANT WEATHER AND/OR OBSTRUCTIONS TO VISIBILITY.

WIZ001-002-006>008-014>016-023>028-310200-
NORTHWEST WISCONSIN

CITY           SKY/WX    TMP DP  RH WIND       PRES   REMARKS
SUPERIOR ARPT  CLEAR     67  51  57 N6        30.13S
ASHLAND        CLEAR     63  58  83 W3        30.13S
HAYWARD        CLEAR     63  58  83 CALM      30.15R
SIREN          CLEAR     69  55  59 CALM      30.15R
CUMBERLAND     CLEAR     66  55  68 NW6       30.15R
RICE LAKE      CLEAR     69  56  63 CALM      30.15S
CHETEK         NOT AVBL
LADYSMITH      CLEAR     69  54  57 NW5       30.15R
EAU CLAIRE     CLEAR     68  59  73 NW5       30.11S
MENOMONIE      CLEAR     70  60  70 NW5       30.13R
NEW RICHMOND   CLEAR     68  57  68 NW5       30.14S
OSCEOLA        CLEAR     70  58  66 NW3       30.17S
$$

WIZ003>005-009-010-017-018-310200-
NORTH CENTRAL WISCONSIN

CITY           SKY/WX    TMP DP  RH WIND       PRES   REMARKS
MANITOWISH WTR NOT AVBL
ARBOR VITAE    CLEAR     62  50  66 N5        30.14R
WOODRUFF       CLEAR     62  50  66 N5        30.14R
RHINELANDER    CLEAR     66  51  58 N6        30.13R
EAGLE RIVER    CLEAR     63  49  60 NW7       30.13R
LAND O LAKES   CLEAR     62  49  61 NW3       30.14S
PHILLIPS       CLEAR     65  57  75 NW5       30.13R
TOMAHAWK       CLEAR     67  53  61 NW5       30.13R
MEDFORD        CLEAR     67  60  77 NW5       30.11S
MERRILL        CLEAR     68  60  75 N5        30.11R
$$

WIZ029-030-035-036-043>047-310200-
CENTRAL WISCONSIN

CITY           SKY/WX    TMP DP  RH WIND       PRES   REMARKS
WAUSAU         CLEAR     72  59  63 NW6       30.07S
MOSINEE        NOT AVBL
MARSHFIELD     CLOUDY    68  61  78 NW8       30.10R
STEVENS POINT  PTCLDY    72  62  71 CALM      30.08R
WAUPACA        PTCLDY    77  66  68 NW5       30.05R
WAUTOMA        PTCLDY    73  67  81 NW6       30.06R
WISC RAPIDS    PTCLDY    73  64  73 N6        30.09R
CAMP DOUGLAS   NOT AVBL
$$

WIZ011>013-019>022-031-037>040-048>050-310200-
NORTHEAST WISCONSIN

CITY           SKY/WX    TMP DP  RH WIND       PRES   REMARKS
ANTIGO         CLEAR     67  58  71 CALM      30.10R
SHAWANO        PTCLDY    76  63  62 NW7       30.05S
OCONTO         NOT AVBL
STURGEON BAY   CLOUDY    75  65  70 N10       30.04R
GREEN BAY      PTCLDY    76  69  79 N10       30.03R
MANITOWOC      NOT AVBL
APPLETON       MOCLDY    77  63  61 NW8       30.02S
CLINTONVILLE   PTCLDY    75  63  64 N6        30.04R
OSHKOSH        PTCLDY    76  65  68 W5        30.03S
$$

WIZ032>034-041-042-053>061-310200-
SOUTHWEST WISCONSIN

CITY           SKY/WX    TMP DP  RH WIND       PRES   REMARKS
LA CROSSE      CLEAR     72  63  73 NW7       30.09R
SPARTA         PTCLDY    73  65  75 NW6       30.09S
VIROQUA        CLEAR     70  67  90 NW5       30.10S
BOSCOBEL       PTCLDY    73  70  90 CALM      30.07S
PRAIRIE DU CHI PTCLDY    75  65  71 NW5       30.07S
PLATTEVILLE    CLOUDY    74  72  92 NW6       30.07F
$$

WIZ056-057-062-063-064-067-068-310200-
SOUTH CENTRAL WISCONSIN

CITY           SKY/WX    TMP DP  RH WIND       PRES   REMARKS
REEDSBURG      NOT AVBL
BARABOO/DELLS  CLOUDY    73  65  76 NW6       30.07S
LONE ROCK      NOT AVBL
MINERAL POINT  MOCLDY    75  70  83 NW6       30.08S
MADISON        MOCLDY    72  68  87 NW3       30.04S
MIDDLETON      MOCLDY    73  70  91 NW3       30.06S
WATERTOWN      PTCLDY    73  72  96 SW3       30.03F
MONROE         CLOUDY    70  68  94 W7        30.06S
JANESVILLE     MOCLDY    72  72 100 CALM      30.04F
$$

WIZ051-052-058>065-066-070>072-310200-
SOUTHEAST WISCONSIN

CITY           SKY/WX    TMP DP  RH WIND       PRES   REMARKS
MILWAUKEE      MOCLDY    74  68  81 W5        30.03R
WAUKESHA       MOCLDY    70  66  88 CALM      30.05S
MILWAUKEE/TIMM CLEAR     73  66  78 W5        30.04S
RACINE         CLOUDY    71  68  90 W5        30.05R
BURLINGTON     PTCLDY    68  67  98 CALM      30.04S
KENOSHA        PTCLDY    70  68  93 W5        30.04S
FOND DU LAC    PTCLDY    75  66  73 W6        30.03S
SHEBOYGAN      PTCLDY    71  67  87 CALM      30.02S
WEST BEND      PTCLDY    73  68  83 W5        30.03S
JUNEAU         PTCLDY    75  66  73 CALM      30.05S
$$

LSZ147-162-310200-
LAKE SUPERIOR

STATION/POSITION TIME  TEMP    WIND        PRES    WAVE
                       AIR SEA DIR/SP/G            HT/PER
                 (UTC) (F)     (DEG/KT/KT) (MB)    (FT/S)
W MID LAKE BUOY  2350   68 68  250/ 10/ 12 1018.7F   1/ 3
DEVILS ISLAND    0000   69     250/  8/  9 1019.3F
SAXON HARBOR     0000   68     200/  2/  3 1019.6F
$$

LMZ867-665-643>646-310200-
LAKE MICHIGAN

STATION/POSITION TIME  TEMP    WIND        PRES    WAVE
                       AIR SEA DIR/SP/G            HT/PER
                 (UTC) (F)     (DEG/KT/KT) (MB)    (FT/S)
CHAMBERS ISLAND  0000   76     310/  5/  6 1016.3S
S GREEN BAY BUOY 2330   78 76  320/  6/  8 1016.0F
N MID LAKE BUOY  2350   73 72  340/ 10/ 12 1015.9S   1
NORTHPORT PIER   0000   74     330/  6/  7 1016.3F
SISTER BAY       2337   77      10/  8/ 10   N/A
KEWAUNEE LAKESHO 0000   71                 1015.5F
SHEBOYGAN LAKESH 0000   81     280/  3/  5 1015.6F
PORT WASHINGTON  0000   78     280/  4/  6 1017.3
ATWATER BUOY     0000   71     290/  6/  8   N/A
MILWAUKEE LAKESH 0010   76     270/  4/  4   N/A
S MID LAKE BUOY  2350   74 76  280/  6/  8 1016.2F   1/ 3
KENOSHA   LAKESH 0000   73     290/  4/  7 1016.6F
$$

TC  - TEMPERATURE IN CELSIUS
VSB - VISIBILITY IN STATUTE MILES
WCI - WIND CHILL INDEX
HX  - HEAT INDEX





USA.gov is the U.S. government's official web portal to all federal, state and local government web resources and services.